GFSSGP_prec_cloud_015.txt.gz
Cloud_Cover
100 100 98 19 10 5 4 8 10 60 17 49 42 100 100 100 91 59 6 69 88 67 73 55 5 2 0 0 0 0 22 97 100 100 55 1 53 93 50 93 90 100 5 0 0 0 0 0 0
100 100 78 100 76 34 5 18 80 12 18 26 100 100 100 75 5 5 1 5 1 5 9 32 34 5 1 0 4 5 94 100 98 53 0 100 98 100 100 100 95 6 6 2 5 0 0 0 0
100 100 100 100 47 8 5 5 100 27 44 5 80 91 100 100 41 10 56 5 5 34 42 5 28 5 2 2 5 85 100 100 99 5 5 22 100 100 100 100 97 92 8 70 83 100 83 4 2
100 100 100 100 72 5 2 4 59 50 99 44 44 61 100 100 100 5 16 6 38 83 52 21 5 5 4 4 6 21 99 30 99 100 100 6 7 100 100 100 100 34 5 41 1 52 66 0 0
100 78 100 100 100 8 1 24 20 70 93 70 79 100 100 100 24 6 59 100 45 61 11 5 4 5 5 89 100 100 44 75 100 98 94 13 4 15 2 44 71 2 0 0 0 0 0 0 0
100 38 90 100 100 14 3 29 5 100 100 83 21 33 100 78 11 96 95 100 6 7 4 4 4 3 54 100 100 100 100 97 96 49 27 9 0 0 0 0 0 0 0 0 0 0 0 0 0
32 59 100 100 100 96 10 3 80 82 92 74 75 22 16 5 80 100 64 57 36 54 5 0 2 13 100 100 100 100 52 21 6 77 45 7 7 1 0 0 0 0 0 29 34 0 0 0 1
60 9 33 99 38 99 10 5 100 100 98 91 42 35 12 94 17 44 55 79 76 13 3 5 5 59 100 98 1 0 0 1 2 0 16 4 4 61 80 100 96 82 99 99 100 33 0 0 0
5 9 66 100 90 32 98 55 97 68 100 53 16 5 85 99 100 100 100 19 5 9 23 5 7 66 100 0 5 5 2 6 4 0 0 0 0 1 0 0 0 0 3 7 4 0 0 0 1
48 9 70 81 53 92 70 64 90 44 72 6 39 85 100 100 100 80 18 5 5 61 28 5 5 89 5 0 0 1 3 1 0 0 0 0 0 0 0 0 2 0 0 0 6 0 0 0 0
5 5 99 100 99 37 62 94 100 10 96 72 96 5 97 56 26 16 5 8 5 26 6 0 88 10 0 0 0 0 2 0 0 0 0 0 0 3 0 2 0 5 9 5 5 5 5 9 27
1 14 92 61 100 58 28 19 12 36 100 73 32 11 72 95 9 71 100 6 5 4 79 3 4 0 0 0 0 0 0 1 7 0 0 5 24 11 3 20 2 7 8 6 5 5 82 69 90
5 96 24 89 100 100 95 54 50 98 46 41 5 34 72 81 75 100 39 2 17 18 78 0 2 0 0 0 0 0 1 4 0 0 0 10 19 14 3 17 7 53 79 9 3 5 12 3 81
78 33 100 100 100 100 73 54 89 98 28 18 4 18 94 93 99 72 4 5 5 72 5 4 0 0 0 0 0 0 0 0 1 6 6 5 18 22 21 76 93 100 1 0 8 12 15 8 14
100 100 100 100 100 100 100 37 100 90 5 0 2 66 100 99 97 69 22 4 5 3 96 0 2 0 0 0 0 0 0 0 0 0 8 7 9 11 16 20 18 23 3 5 7 7 9 14 88
100 100 100 100 100 100 70 99 96 5 0 66 81 6 59 97 70 7 5 7 1 4 5 5 5 0 0 0 0 0 0 0 0 5 35 44 57 5 6 14 13 5 14 9 8 18 23 16 14
100 100 100 100 100 16 5 81 5 5 9 100 36 84 100 72 94 5 3 0 0 2 5 0 1 0 0 0 0 0 0 1 6 96 61 5 71 95 23 35 100 86 18 17 6 15 5 11 9
100 91 20 100 82 50 1 37 2 35 36 100 100 100 42 55 5 5 0 1 24 5 1 0 0 0 0 48 2 0 0 0 82 100 66 93 100 67 100 24 32 82 77 20 16 4 8 2 8
38 5 16 100 83 9 0 4 20 54 100 100 100 100 100 9 0 8 2 49 36 40 1 0 0 5 5 5 0 0 0 4 100 100 93 89 100 45 100 46 68 100 27 92 9 4 1 42 40
5 4 75 100 73 0 3 0 48 100 100 100 100 98 10 5 5 4 24 35 96 20 0 0 5 5 3 1 0 0 5 99 99 76 26 98 93 85 100 98 100 96 24 8 16 5 38 15 28
5 69 100 100 5 3 0 20 16 98 100 100 100 38 5 5 5 4 73 91 53 0 0 0 5 5 0 0 0 0 35 74 98 36 5 92 94 100 100 100 99 7 12 18 9 4 80 20 86
68 100 98 97 8 0 0 27 99 100 100 100 99 5 60 13 2 3 62 4 0 0 0 0 0 0 0 0 0 0 6 86 20 9 62 90 57 100 100 87 5 5 38 5 7 10 5 93 31
100 100 100 96 0 0 15 100 100 100 100 100 15 3 42 8 0 2 0 0 0 0 0 0 0 0 0 0 0 1 31 44 100 36 92 15 99 98 56 5 30 70 5 1 0 29 100 6 8
100 66 29 1 0 18 99 61 25 42 80 25 4 70 6 1 3 4 0 0 0 0 0 0 0 0 0 0 0 13 37 100 99 64 60 5 86 98 79 28 58 37 5 4 36 57 55 39 100
68 1 0 0 20 100 43 0 10 5 47 99 5 5 3 2 5 3 0 0 0 0 0 0 0 0 0 0 0 4 67 100 72 89 10 24 98 100 6 26 45 18 5 79 96 5 98 78 100
100 99 52 89 100 100 2 24 5 74 100 30 5 5 4 3 5 0 0 0 0 0 0 0 0 0 0 0 1 8 100 88 21 5 9 80 84 100 55 89 6 5 6 100 49 16 100 71 100
100 98 88 89 34 3 0 100 100 100 100 6 5 5 5 16 22 0 0 0 0 0 0 0 0 0 0 0 1 9 100 40 5 9 10 22 55 98 15 97 5 5 5 6 64 89 100 94 91
100 26 93 6 1 21 99 100 100 100 95 4 10 29 15 95 0 0 0 0 0 0 0 0 0 0 0 0 1 84 100 5 5 44 5 100 87 61 20 75 5 5 6 33 89 100 100 100 100
49 57 2 2 41 95 100 100 100 100 24 6 8 8 84 0 0 0 0 0 0 0 0 0 0 0 0 0 3 98 98 5 7 6 34 100 62 39 31 71 88 36 87 85 100 100 100 100 100
50 47 100 100 100 99 36 100 100 98 6 4 4 97 0 0 0 0 0 0 0 0 0 0 0 0 0 0 22 100 100 5 49 5 98 46 14 8 21 69 75 100 49 97 98 100 100 98 98

GFSSGP_prec_cloud_021.txt.gz
Cloud_Cover
99 9 32 100 100 100 100 74 21 17 5 4 0 5 4 5 5 5 5 5 28 28 8 5 0 0 4 5 5 5 1 0 0 0 0 0 0 0 0 0 0 0 1 0 0 0 0 0 0
5 4 5 100 71 99 100 63 100 53 5 5 2 5 9 5 15 5 5 5 5 5 5 4 1 0 0 0 0 0 0 0 0 0 0 0 0 0 0 0 0 0 0 0 0 6 0 0 5
5 4 5 24 68 14 44 7 9 5 5 2 5 4 44 5 12 5 3 5 5 5 5 3 1 0 0 0 0 0 0 0 0 0 0 0 0 0 0 2 14 75 4 2 5 16 100 90 11
89 5 6 15 80 36 5 5 5 5 5 5 62 4 5 5 4 5 5 11 5 5 1 0 1 0 0 0 0 0 0 0 0 0 0 0 0 0 5 36 52 100 100 94 26 10 30 100 100
6 5 5 12 11 76 5 4 5 5 81 15 17 5 5 1 5 8 39 13 56 5 2 4 2 0 4 4 0 0 0 0 0 0 0 0 0 3 3 79 100 100 100 100 100 5 1 85 100
77 5 5 32 94 64 5 5 5 5 5 39 5 5 5 5 5 27 7 5 70 5 5 5 0 3 1 0 0 0 0 5 3 0 0 0 0 3 1 0 17 51 100 100 100 100 5 0 35
99 58 30 95 100 87 49 5 38 5 5 5 62 5 21 37 8 5 4 33 82 5 5 4 3 0 0 0 0 0 3 0 0 0 0 0 0 0 0 0 0 2 24 99 100 100 96 48 5
50 26 57 100 100 100 81 97 29 5 5 5 77 5 5 57 31 5 5 77 6 51 5 5 5 0 0 0 2 0 0 0 0 0 0 0 0 0 0 0 0 0 1 5 0 1 48 3 0
48 86 100 100 100 100 73 96 6 5 5 5 6 5 88 86 38 5 70 92 97 5 38 74 5 1 1 17 0 0 0 0 0 0 0 0 0 0 0 0 0 0 0 0 0 0 0 0 0
85 92 100 100 100 66 56 92 7 5 4 51 5 80 26 44 14 5 42 100 43 5 57 100 66 5 5 0 0 0 0 0 0 0 0 0 0 0 0 0 0 0 0 0 11 7 29 16 45
87 96 100 91 100 11 12 15 26 40 14 45 10 100 100 93 5 10 98 86 12 5 56 97 90 5 9 5 3 0 0 0 0 0 0 0 0 0 0 0 0 0 0 0 0 0 1 12 6
7 100 71 62 100 5 9 81 100 25 98 56 98 7 5 11 5 5 98 92 74 78 49 68 50 5 5 1 5 5 0 0 0 0 0 0 0 0 0 0 0 0 0 2 14 9 5 2 1
11 28 5 16 100 29 90 100 100 100 97 51 9 5 5 18 5 5 72 74 100 8 1 33 47 4 5 5 4 0 0 0 0 0 0 0 0 0 5 11 5 6 5 5 5 3 5 9 16
25 51 27 65 97 97 71 68 100 100 100 26 46 5 5 10 5 5 5 82 36 1 6 5 5 5 83 5 5 0 0 1 4 5 0 0 0 0 15 42 38 32 38 26 15 5 5 26 32
5 5 5 5 100 97 99 73 100 93 92 11 5 45 6 98 22 5 3 1 0 0 0 5 22 48 68 5 4 0 4 5 2 0 0 0 0 5 37 64 74 46 45 100 44 12 25 29 32
96 13 7 9 100 100 100 100 17 100 11 5 23 100 99 96 21 5 2 0 0 0 4 15 74 42 49 5 0 1 5 0 0 0 0 0 9 32 67 63 59 56 52 52 16 35 30 28 30
0 49 100 100 100 100 99 4 5 100 35 32 100 100 12 40 5 0 0 0 0 0 4 2 14 58 82 5 0 5 0 0 0 0 0 33 14 44 51 54 100 70 56 27 56 40 30 62 70
64 32 97 5 38 68 4 8 4 86 100 100 100 87 30 3 5 0 0 0 0 1 0 2 93 100 5 4 1 1 0 0 0 0 0 10 37 59 49 90 100 82 100 90 53 71 90 55 53
4 0 3 100 100 35 52 59 99 100 100 17 100 100 8 0 0 2 0 0 4 0 4 64 46 5 4 0 0 0 0 0 0 0 0 16 50 50 85 100 77 100 99 100 100 100 55 45 42
0 0 2 3 5 4 3 0 0 37 92 5 100 6 2 0 0 4 2 0 0 2 0 4 4 0 0 0 0 0 0 0 0 0 4 31 57 92 100 100 94 100 100 98 82 86 65 92 47
4 0 5 15 93 88 35 2 0 0 0 0 0 1 5 0 5 26 3 0 0 0 0 0 0 0 0 0 0 0 0 0 0 5 9 28 85 94 72 98 99 35 70 67 86 67 66 45 46
0 55 100 65 100 7 100 16 0 0 0 0 2 5 0 4 93 43 0 0 0 0 0 0 0 0 0 0 0 0 0 0 4 6 20 44 95 77 99 99 36 44 53 78 44 43 48 14 5
67 100 100 99 19 78 11 6 21 0 0 4 41 0 5 94 93 2 0 0 0 0 0 0 0 0 0 0 0 0 0 0 2 5 24 98 22 95 100 43 24 46 45 41 29 34 38 12 18
100 39 5 86 100 73 4 4 95 18 36 3 0 43 79 100 33 0 0 0 0 0 0 0 0 0 0 0 0 0 0 0 4 5 61 34 82 100 45 32 58 24 17 21 12 5 57 100 100
10 5 2 64 31 4 0 0 100 58 4 4 7 18 82 6 5 0 0 0 0 0 0 0 0 0 0 0 0 0 0 4 5 77 34 80 100 61 72 90 29 2 7 25 5 9 100 100 100
89 98 7 4 2 0 0 16 100 65 1 2 39 5 15 28 0 0 0 0 0 0 0 0 0 0 0 0 0 0 2 3 7 11 97 99 67 62 30 53 5 4 1 2 6 84 100 100 100
39 2 62 5 0 0 0 100 100 5 90 18 5 14 95 4 1 0 0 0 0 0 0 0 0 0 0 0 0 2 0 4 22 26 86 60 53 30 27 5 5 10 5 55 100 100 100 100 100
12 82 4 0 0 91 98 100 100 28 100 67 5 11 68 5 5 0 0 0 0 0 0 0 0 0 0 0 0 0 5 10 5 30 69 43 46 26 17 5 6 8 6 29 62 98 100 100 100
0 4 0 0 7 100 100 100 100 93 100 14 11 97 14 29 5 2 0 0 0 0 0 0 0 0 0 0 0 3 4 2 5 24 54 62 33 18 5 5 6 60 100 100 100 92 100 100 100
0 23 3 2 27 100 100 100 52 100 64 95 98 100 94 100 7 0 0 0 0 0 0 0 0 0 0 0 0 5 5 43 5 35 39 48 37 76 22 5 5 98 100 97 100 100 100 100 100

GFSSGP_prec_cloud_024.txt.gz
Cloud_Cover
100 32 84 79 50 22 99 70 100 64 30 74 5 41 48 7 4 5 3 1 2 5 5 5 0 0 0 0 1 4 1 0 0 0 0 0 0 0 0 0 0 0 0 0 0 0 0 0 0
100 100 51 5 5 5 76 10 5 3 2 5 5 5 5 5 3 0 0 3 4 4 5 5 5 0 0 0 0 0 0 0 0 0 0 0 0 0 0 0 0 0 0 0 0 0 0 0 0
62 18 32 14 5 5 34 30 5 0 0 0 4 5 5 24 5 3 0 0 2 5 5 5 1 2 0 0 0 0 0 0 0 0 0 0 0 0 0 0 0 0 0 0 0 0 0 40 9
92 35 10 97 5 5 5 5 5 4 4 3 3 5 5 5 5 5 2 0 0 1 5 5 3 3 2 0 0 0 0 0 0 0 0 0 0 0 0 1 5 1 3 4 4 28 26 5 87
58 100 100 100 94 5 5 5 5 0 0 1 5 5 4 5 5 5 0 0 0 3 5 5 2 2 4 0 0 0 0 0 0 0 0 0 0 0 0 0 1 5 77 71 35 30 100 89 94
100 88 97 100 99 74 19 12 5 5 46 5 5 61 2 0 5 5 5 3 1 3 5 5 4 5 5 0 0 0 0 0 0 0 0 0 0 0 0 0 2 2 0 36 100 62 84 100 100
100 100 93 100 100 100 83 7 5 6 52 68 100 100 6 5 5 5 5 0 2 5 48 5 5 5 0 0 0 0 0 0 0 0 0 0 0 0 0 0 0 0 2 0 4 99 100 97 69
98 100 100 100 100 100 60 16 0 15 100 100 100 6 5 5 5 5 60 0 1 5 76 14 26 5 5 0 0 0 0 0 0 0 0 0 0 0 0 0 0 0 0 0 0 0 4 16 93
100 100 96 80 100 100 34 48 5 86 100 100 97 5 5 5 28 18 43 4 5 82 14 36 5 19 57 5 2 5 0 0 0 0 0 0 0 0 4 21 0 0 0 0 0 0 0 0 0
100 94 100 100 54 97 84 18 7 21 99 60 5 5 5 97 48 66 79 6 6 100 39 5 5 47 88 5 5 4 0 0 0 0 3 3 0 0 0 2 0 0 0 0 0 0 1 0 61
71 62 63 63 85 90 31 83 79 53 92 93 42 6 66 55 7 18 80 23 52 92 8 5 5 5 5 1 2 4 0 0 0 0 0 0 0 1 15 24 81 93 72 8 0 1 2 8 94
18 93 60 97 100 96 51 15 96 100 100 100 4 5 75 11 5 9 74 5 100 100 92 5 5 1 5 0 4 6 5 5 0 0 5 0 0 4 12 10 85 100 54 55 35 49 86 21 2
100 14 21 100 100 12 85 67 100 100 85 100 2 16 85 5 5 11 50 23 98 81 89 29 2 16 0 0 5 75 59 5 0 0 0 0 0 1 18 81 90 90 97 100 68 57 44 100 98
91 4 23 100 57 94 95 100 100 100 100 46 5 91 100 61 44 79 74 43 34 96 51 5 1 0 2 5 54 97 68 17 2 5 0 0 0 10 59 87 99 87 100 100 100 87 94 64 84
79 5 3 14 22 75 21 34 98 59 100 32 5 6 5 67 61 100 34 42 99 87 36 2 0 5 17 5 56 56 72 32 5 0 0 0 0 19 43 38 66 61 100 94 67 24 49 33 46
100 100 93 98 100 92 76 4 100 77 100 12 6 5 6 21 100 99 66 100 100 49 5 0 0 2 5 82 100 76 91 16 5 0 0 0 9 49 67 64 56 46 100 100 87 56 85 83 71
84 100 100 100 99 80 88 21 98 72 100 8 17 5 83 100 100 74 100 100 80 0 0 0 0 0 4 100 48 61 21 0 4 0 0 1 22 56 90 94 32 81 88 100 98 98 43 100 66
57 1 2 3 52 74 32 50 1 5 5 5 12 100 100 100 100 100 100 100 3 0 0 0 0 0 5 100 92 3 1 0 0 0 0 2 59 75 100 72 93 72 100 100 100 79 72 48 87
3 2 1 5 14 5 0 0 0 28 2 90 74 100 100 100 28 6 2 1 0 0 0 0 0 0 5 9 25 0 0 0 0 0 2 34 40 88 98 95 80 100 99 100 100 100 100 100 91
3 0 0 0 0 3 2 0 0 10 3 2 5 36 0 0 1 0 0 0 0 0 0 0 0 0 0 0 0 0 0 0 0 0 28 55 67 86 100 97 100 100 91 92 50 82 72 100 96
0 0 3 4 66 77 4 1 0 0 2 0 0 0 0 0 0 0 1 1 0 0 0 0 0 0 0 0 0 0 0 0 0 3 53 97 56 94 52 92 99 74 31 36 97 99 99 82 38
0 0 1 26 100 0 5 1 0 0 0 0 0 0 0 0 0 0 12 2 0 0 0 0 0 0 0 0 0 0 0 0 0 0 31 23 51 51 98 78 99 93 28 100 100 98 94 60 35
0 0 0 8 3 0 0 15 0 0 0 0 0 0 0 0 0 46 46 0 0 0 0 0 0 0 0 0 0 0 0 0 0 2 10 20 80 96 100 100 80 65 96 61 44 100 64 72 43
0 0 0 5 0 0 0 5 2 27 0 0 0 0 0 1 23 84 0 0 0 0 0 0 0 0 0 0 0 0 0 0 6 17 36 99 85 91 54 67 77 80 28 52 56 90 74 99 99
0 0 0 0 0 0 1 2 49 0 0 0 0 4 47 39 92 14 0 0 0 0 0 0 0 0 0 0 0 0 3 6 34 36 94 33 62 42 69 59 33 23 35 43 95 100 100 95 66
0 0 0 0 3 0 5 2 91 0 24 0 4 88 95 82 7 2 0 0 0 0 0 0 0 0 0 0 0 1 1 60 52 54 46 81 61 18 43 30 21 28 32 100 79 100 100 100 100
0 0 0 0 0 2 28 6 51 3 92 59 5 98 69 5 5 2 0 0 0 0 0 0 0 0 0 0 0 23 19 23 46 62 30 82 39 46 35 25 23 30 31 50 99 50 37 99 100
0 0 0 0 1 34 29 92 97 24 29 82 54 95 97 5 6 0 0 0 0 0 0 0 0 0 0 0 0 18 27 43 44 78 68 66 92 34 56 31 32 23 100 100 100 83 82 86 100
0 0 0 0 5 5 12 90 100 99 41 44 100 95 68 99 8 0 0 0 0 0 0 0 0 0 0 0 1 18 42 28 51 98 100 41 99 21 48 40 43 71 28 28 99 100 98 99 87
0 0 0 0 0 17 86 100 100 100 23 100 100 100 99 100 4 4 2 0 0 0 0 0 0 0 0 0 0 31 44 21 60 100 86 61 54 15 6 22 48 6 12 53 100 100 99 100 100

GFSSGP_prec_cloud_027.txt.gz
Cloud_Cover
80 96 100 100 38 98 70 76 99 78 5 82 89 33 6 5 21 5 5 2 5 5 5 3 0 2 4 1 0 0 0 0 0 0 0 0 0 0 0 0 0 0 0 0 0 0 0 0 0
100 93 100 82 66 23 46 34 84 37 59 5 20 27 7 6 10 5 5 0 0 5 5 5 5 0 2 3 0 0 0 0 0 0 0 0 0 0 0 0 0 0 0 0 0 0 0 0 0
100 100 100 99 100 100 100 82 100 90 5 23 2 5 3 5 5 5 5 2 1 5 0 4 5 1 0 0 0 0 0 0 0 0 0 0 0 0 0 0 0 0 0 0 0 1 0 4 25
100 100 98 76 94 96 83 98 100 8 56 4 5 5 16 10 0 5 5 5 5 3 0 0 5 4 0 0 0 0 0 0 0 0 0 0 0 0 0 0 0 0 1 0 1 9 3 0 0
100 100 77 89 88 97 79 64 98 79 94 39 57 5 49 9 3 4 24 98 15 2 0 0 5 5 1 0 0 0 0 0 0 0 0 0 0 0 0 0 0 0 0 27 29 4 18 0 0
100 100 100 100 100 100 100 100 100 97 100 100 96 100 55 5 79 73 30 10 5 0 0 0 5 34 5 0 0 0 0 0 0 0 0 0 0 0 0 4 1 0 0 1 0 2 3 2 4
100 100 100 100 100 100 100 92 100 100 65 98 100 100 97 93 100 83 17 45 5 0 0 0 4 7 5 5 0 0 0 0 0 0 0 0 0 0 0 0 0 0 0 0 0 0 0 4 52
100 100 100 100 100 100 100 96 7 30 100 100 100 100 98 97 80 49 76 93 4 1 0 0 5 5 5 0 2 0 0 0 0 0 0 0 0 0 0 0 0 0 0 0 0 0 0 4 40
100 100 100 100 100 100 100 41 100 86 60 39 100 100 98 5 5 5 80 5 5 2 0 5 5 5 5 3 0 0 0 0 0 0 0 0 0 0 0 45 0 0 0 0 0 0 0 0 0
95 100 100 100 100 100 100 100 81 73 55 74 100 100 92 99 5 5 30 5 5 88 4 5 28 5 3 5 0 0 0 0 1 4 0 15 4 1 0 0 7 0 0 0 0 0 0 0 0
100 100 100 100 100 98 100 100 100 94 100 100 85 11 52 60 91 58 3 3 5 9 16 24 9 31 5 5 0 0 0 3 5 5 4 2 0 0 0 5 98 93 5 94 95 25 35 15 11
100 100 100 100 100 84 72 100 100 93 100 94 23 34 2 64 92 34 5 5 78 98 98 5 5 47 21 4 0 0 0 5 5 5 5 0 0 0 1 0 15 95 26 100 96 100 100 90 61
100 100 96 99 100 79 81 15 43 45 76 5 36 18 2 52 98 73 26 47 99 99 77 5 14 100 56 4 2 0 4 5 45 6 5 0 0 0 1 10 82 73 44 46 27 63 100 100 100
91 43 95 54 13 44 35 95 29 97 90 46 5 4 17 76 99 100 88 25 98 86 5 30 100 97 6 1 0 0 5 42 91 52 5 0 0 0 0 22 59 100 95 57 8 14 100 15 97
90 34 46 23 96 98 88 4 42 59 76 15 5 5 82 54 100 100 100 72 99 99 67 100 100 100 4 5 1 1 100 87 36 23 5 0 0 0 0 4 100 52 86 25 7 49 41 97 94
19 85 5 99 100 54 100 24 80 99 100 7 4 5 15 11 100 93 78 100 100 100 100 100 50 2 0 3 1 1 5 99 65 0 4 0 1 2 0 58 97 40 37 53 62 96 50 27 97
97 83 100 89 94 100 100 41 100 100 19 5 2 12 4 5 99 60 100 100 100 99 100 75 0 0 0 7 10 1 59 43 25 0 0 0 3 11 3 13 21 32 36 86 100 92 74 75 92
100 93 31 7 100 98 63 16 11 25 5 0 2 26 4 5 47 98 100 90 81 99 56 1 0 0 0 22 32 5 5 99 5 0 0 0 5 2 99 88 27 78 100 87 47 97 52 69 49
6 0 1 2 48 99 2 16 98 55 4 0 2 5 4 0 2 2 3 5 6 11 5 0 0 0 0 32 2 4 0 2 0 0 0 0 0 93 100 45 87 68 100 68 88 100 100 100 37
0 0 0 2 2 100 33 77 5 5 3 2 0 0 0 0 0 0 0 0 0 4 5 0 0 0 2 0 0 0 0 0 0 3 19 23 1 100 88 46 55 48 100 52 31 15 34 71 96
0 0 0 0 2 95 89 32 0 0 0 0 0 0 0 0 0 0 0 0 0 5 5 4 0 13 0 0 0 0 0 0 0 0 0 0 4 96 59 96 83 97 24 34 5 29 21 69 100
0 0 0 0 2 31 25 10 0 0 1 0 0 0 2 0 0 0 0 0 5 5 5 0 1 0 0 0 0 0 0 0 2 0 9 10 96 94 100 100 91 60 37 35 15 52 97 79 49
0 0 0 0 0 0 0 0 0 0 0 0 3 0 0 0 0 0 0 0 5 5 4 2 1 0 0 0 0 0 0 0 0 0 5 0 73 100 100 100 88 20 5 7 26 27 12 8 69
0 0 0 1 3 2 0 0 0 63 0 0 4 0 0 0 0 0 1 70 14 32 0 1 0 5 0 0 0 0 0 0 0 9 58 7 17 38 14 100 43 19 20 24 28 43 62 28 60
0 0 0 0 1 0 0 0 3 4 0 3 2 7 0 0 0 0 38 83 87 3 0 0 0 0 0 0 0 0 0 0 10 10 5 20 20 49 5 100 17 14 17 23 55 100 100 100 81
0 0 0 0 0 0 0 0 91 0 0 0 0 0 0 5 5 27 97 97 7 0 0 0 0 0 0 0 0 0 0 30 92 67 13 90 18 10 86 87 16 26 95 44 87 62 95 86 96
0 1 4 0 0 0 3 30 5 2 0 0 0 5 36 20 97 100 93 5 0 0 0 0 0 0 0 0 0 1 12 16 56 33 5 66 10 31 40 28 22 37 78 98 95 40 100 100 100
3 2 1 0 0 1 49 81 73 52 1 5 5 88 26 99 100 90 6 2 0 0 0 0 0 0 0 0 0 73 100 100 99 49 51 79 92 43 33 14 31 100 98 58 43 34 61 100 100
0 17 0 0 0 12 90 29 95 18 5 55 20 19 84 100 100 5 5 5 1 2 0 0 0 0 0 0 9 100 100 96 100 41 14 89 72 32 88 76 76 78 100 90 100 100 100 100 100
0 0 0 0 0 5 58 100 5 4 63 100 87 99 100 100 15 57 5 4 5 0 0 0 0 0 0 0 6 100 100 100 17 59 6 100 97 85 100 90 77 77 81 62 43 67 51 86 78

GFSSGP_prec_cloud_030.txt.gz
Cloud_Cover
100 100 100 98 99 100 100 88 100 58 95 99 66 27 5 4 5 2 1 5 5 5 5 3 4 14 5 5 3 0 0 0 0 0 0 0 0 0 0 0 0 0 0 0 0 0 0 0 0
100 100 100 100 100 100 92 91 100 98 100 99 94 29 27 99 1 3 3 1 4 4 4 0 1 5 5 4 0 0 0 0 0 0 0 0 0 0 0 0 0 0 0 0 0 0 0 0 0
100 100 100 100 100 100 94 100 100 100 98 100 18 5 3 4 1 0 0 0 5 1 0 0 0 5 5 56 0 0 0 0 0 0 0 0 0 0 0 0 0 0 0 0 1 17 6 7 3
100 100 100 100 100 100 100 100 88 100 98 100 40 11 36 6 30 5 16 7 5 100 56 1 0 33 47 5 5 0 0 0 0 0 0 0 0 0 0 0 0 0 0 5 1 4 0 0 0
100 100 99 100 100 100 100 100 100 94 82 100 97 76 3 73 100 93 0 12 100 99 18 1 1 3 90 5 4 0 0 0 0 0 0 0 0 0 0 0 0 1 1 0 7 0 0 0 22
100 100 99 100 100 96 100 100 95 99 98 98 100 100 100 53 16 30 7 89 100 90 43 43 3 2 97 5 1 0 0 0 0 0 0 0 0 0 0 0 0 0 0 0 3 0 0 0 0
100 100 100 100 100 100 100 99 99 100 100 99 80 100 100 91 10 91 100 100 100 83 3 2 0 2 99 0 1 1 5 0 0 0 0 0 0 0 0 0 0 0 0 0 0 0 0 0 1
100 100 100 100 100 100 100 100 100 100 100 100 100 89 99 100 70 16 4 5 100 100 84 5 2 2 37 0 0 2 1 0 0 0 0 0 0 0 0 0 0 0 0 0 0 0 0 0 0
100 100 100 100 100 100 100 100 100 94 100 100 100 100 100 98 93 7 4 5 9 11 70 11 54 5 0 0 4 2 0 5 5 1 0 0 0 0 0 0 0 0 0 0 0 0 0 0 0
100 79 99 100 100 100 100 100 100 100 96 98 99 100 100 65 80 28 13 46 34 26 8 5 6 2 5 0 5 5 5 5 5 0 0 0 5 4 0 0 0 0 0 0 0 0 0 0 0
100 100 100 100 100 100 96 100 100 98 100 100 100 100 100 100 16 7 5 100 94 77 38 88 29 11 1 5 5 27 5 5 4 0 0 1 5 5 1 0 0 0 0 0 0 12 6 2 0
100 100 100 100 100 95 64 59 100 100 100 100 100 100 98 5 5 3 38 91 99 100 97 82 8 63 4 0 5 28 5 6 0 0 28 72 15 5 0 0 0 0 17 31 0 92 38 75 98
100 100 98 55 100 100 100 85 100 100 100 100 87 52 32 78 12 5 94 99 95 100 87 5 11 8 68 5 4 6 11 2 0 3 34 100 98 0 0 0 0 8 0 0 85 100 0 2 74
100 100 100 79 39 100 100 100 100 100 100 100 64 5 5 51 100 53 99 89 100 92 29 47 23 15 100 78 7 5 3 4 0 3 1 98 67 0 0 0 0 0 0 12 50 4 2 0 27
72 85 7 88 100 100 100 100 91 100 100 43 5 5 5 6 41 100 100 45 35 92 11 75 100 100 100 78 32 37 5 5 5 0 5 10 5 4 0 0 0 0 93 0 5 71 42 33 32
46 91 3 62 100 100 96 17 94 97 76 3 5 5 63 23 90 69 100 6 5 6 99 100 99 96 100 81 7 6 4 63 4 0 6 51 5 4 0 0 0 11 24 4 15 38 91 39 7
47 59 71 98 100 15 89 24 94 9 5 2 1 2 5 63 88 100 56 4 1 5 5 76 4 2 22 5 3 3 5 0 1 5 5 9 3 0 0 0 0 0 1 5 5 39 100 100 30
84 87 100 65 100 64 82 18 64 30 37 5 26 22 16 100 99 57 0 0 1 10 5 0 0 2 4 46 4 0 27 35 7 79 3 0 0 0 1 0 0 0 5 8 6 18 8 6 22
59 25 0 0 19 81 49 1 70 100 67 81 99 6 7 5 1 84 0 0 0 5 1 0 0 5 5 40 3 32 100 41 1 0 0 0 0 18 72 3 0 5 5 20 13 49 18 35 100
0 0 0 0 2 37 88 13 1 1 12 12 7 4 0 0 0 24 6 0 0 3 0 0 4 29 98 34 4 15 0 0 0 0 0 0 0 0 62 0 20 26 89 100 78 4 4 6 47
0 0 0 0 0 0 5 56 0 0 2 4 2 0 0 0 0 0 1 0 0 0 0 0 5 96 78 5 5 0 0 0 0 0 0 0 0 0 3 12 79 79 99 28 4 5 3 5 47
0 0 0 0 0 0 0 1 0 0 0 0 0 0 0 0 0 0 56 3 0 0 0 5 90 99 52 22 2 0 0 0 0 0 95 41 0 74 54 19 21 8 31 5 5 87 92 89 29
0 4 0 0 0 0 1 0 0 0 0 0 0 0 0 0 3 17 100 3 0 0 4 21 96 90 65 5 0 0 0 0 0 0 2 0 13 7 5 3 1 12 5 5 7 5 6 2 13
0 0 0 0 0 11 0 0 0 0 0 0 0 0 0 5 3 24 3 0 0 5 5 89 90 99 55 0 0 0 0 0 0 0 0 3 3 4 0 0 5 2 4 3 7 21 36 74 100
0 2 0 0 0 0 0 0 0 5 0 0 0 0 1 4 31 4 5 0 5 43 66 98 100 55 0 0 0 0 0 0 0 0 4 2 0 3 10 1 3 0 4 17 22 97 98 93 97
0 0 0 0 0 0 0 0 0 0 0 0 0 0 0 2 2 0 5 5 82 100 96 100 14 0 0 0 0 0 0 2 0 0 12 2 3 0 0 4 5 2 28 9 16 95 100 100 93
1 4 0 0 0 0 0 0 0 0 0 0 0 0 0 0 0 13 68 18 100 100 89 4 2 5 0 0 0 0 0 0 0 5 0 97 0 0 17 5 12 14 5 5 82 100 100 98 99
5 3 0 1 0 0 0 0 0 60 1 0 0 0 0 0 5 87 100 100 100 51 5 4 6 0 0 1 0 50 2 54 17 22 99 10 4 54 4 58 100 100 45 9 94 99 94 47 99
49 4 32 0 2 0 1 0 71 63 7 0 1 0 5 5 3 100 100 100 16 5 11 44 0 0 0 0 0 50 48 97 20 100 32 21 38 4 26 100 100 52 53 100 83 59 95 100 100
88 14 30 0 0 0 0 1 5 62 10 0 0 0 5 58 99 100 100 8 5 43 27 0 0 0 0 0 20 2 100 56 98 2 5 98 76 70 95 100 94 59 82 67 16 48 100 100 100

GFSSGP_prec_cloud_033.txt.gz
Cloud_Cover
100 100 84 100 100 100 100 100 66 90 100 100 100 20 4 0 35 2 5 0 3 1 0 1 2 0 0 5 2 5 1 0 0 0 0 0 0 0 0 0 0 0 0 0 0 0 0 0 0
100 100 100 100 100 100 100 100 47 100 99 99 100 77 10 2 17 10 5 3 0 86 4 0 43 73 34 5 5 55 2 0 0 0 2 0 0 0 0 0 0 0 0 0 0 0 0 0 0
100 100 99 100 100 100 100 100 100 100 91 92 97 98 84 9 17 92 24 5 84 100 96 0 25 96 71 63 100 100 20 0 0 0 0 0 0 0 0 0 0 0 0 0 14 0 0 2 0
100 100 100 100 100 100 100 100 100 100 90 100 95 100 59 5 16 43 4 2 39 100 54 1 0 5 99 17 61 23 5 4 0 0 0 5 0 0 0 0 0 0 0 0 2 0 0 0 3
100 100 100 100 100 100 99 100 100 100 100 100 75 100 95 60 11 16 9 49 100 58 57 82 5 5 5 5 8 13 5 4 0 0 0 5 1 0 0 0 0 0 1 3 1 0 0 0 0
100 70 80 100 100 100 100 100 100 100 100 100 100 90 81 100 71 17 5 5 13 47 100 100 65 31 6 5 5 3 0 0 0 0 0 0 0 0 0 0 0 0 1 1 0 0 0 0 0
100 100 100 100 100 100 100 100 100 100 100 100 100 100 93 75 98 4 49 95 40 100 100 100 100 67 4 1 3 0 0 0 0 0 0 0 0 0 0 0 0 0 1 0 0 0 0 0 0
99 97 97 100 100 100 100 100 100 100 100 100 100 100 40 100 85 98 99 22 95 8 100 100 100 100 100 1 0 0 0 0 0 1 0 0 1 5 5 0 0 0 0 0 0 0 0 0 0
100 100 100 100 100 100 100 100 100 100 100 100 100 100 100 100 100 100 90 96 36 2 84 82 100 100 100 36 0 4 0 0 5 5 4 5 5 4 4 2 0 0 0 0 0 0 0 0 0
100 100 100 100 100 100 100 100 100 100 100 100 100 100 100 100 100 78 6 8 13 10 90 79 53 100 96 5 4 4 5 2 5 5 5 5 4 2 5 4 3 0 0 0 0 0 0 0 0
90 100 100 100 100 100 100 100 100 100 100 99 100 100 100 100 100 100 79 35 96 100 100 100 16 5 0 4 84 4 5 5 12 22 41 6 4 5 5 5 2 0 0 0 0 0 0 0 0
13 100 96 100 100 100 100 100 100 95 100 100 96 92 97 100 93 100 100 100 100 100 96 100 28 5 0 4 47 35 73 9 8 93 70 5 2 6 7 2 5 0 0 0 0 0 27 18 0
7 92 26 99 100 96 100 100 100 100 100 100 100 98 38 13 91 19 5 76 100 100 100 100 95 1 3 0 4 9 98 100 100 100 33 5 0 94 41 67 5 1 0 0 0 5 17 75 0
89 73 5 48 81 96 92 100 100 100 100 100 100 100 95 38 77 100 98 86 100 100 100 100 24 5 4 5 3 4 76 97 35 89 31 71 7 100 6 67 2 5 0 18 84 2 64 98 30
53 26 5 8 100 100 100 100 100 100 100 100 100 40 84 38 99 98 85 43 62 100 80 8 5 5 26 54 1 0 1 0 4 0 8 8 1 22 91 2 0 5 0 0 0 7 40 100 100
100 95 3 94 100 100 100 100 100 100 91 49 12 15 69 89 100 64 9 97 80 70 6 0 4 5 27 97 1 0 0 0 0 4 3 2 5 98 66 2 3 1 0 0 0 8 16 68 99
78 37 73 100 100 100 98 0 5 25 3 0 0 2 5 65 26 5 4 16 77 99 13 1 4 2 5 10 0 0 5 5 5 0 2 5 14 3 3 1 5 0 0 0 10 5 3 5 6
62 93 22 17 99 100 5 0 0 6 0 0 0 2 4 16 5 5 3 5 7 7 4 0 0 0 5 1 1 2 5 38 7 5 4 22 1 0 1 4 0 0 3 49 68 74 52 20 31
19 1 0 0 2 70 0 0 0 84 2 2 12 5 5 5 11 5 2 5 5 5 4 0 0 0 0 0 1 43 75 96 57 90 100 0 0 0 0 9 37 4 85 53 50 88 6 22 90
5 3 6 26 53 74 2 0 0 0 0 1 22 60 18 4 1 1 1 0 0 0 0 0 0 0 0 0 4 26 100 85 97 46 27 0 0 0 0 0 8 8 25 54 100 100 100 76 11
0 2 79 53 99 100 29 0 0 0 0 0 0 0 0 0 0 0 0 0 0 1 2 0 0 0 0 3 31 63 100 84 22 0 0 0 0 0 0 1 8 84 61 29 6 5 5 13 49
0 0 0 0 0 0 1 0 0 0 0 0 0 0 0 0 0 0 0 0 3 0 0 0 0 0 8 5 38 79 75 56 0 0 0 0 0 31 43 5 5 2 0 0 2 5 7 81 98
0 0 0 0 0 0 0 0 0 0 0 0 0 0 0 0 0 0 0 0 1 1 0 0 0 45 79 99 93 98 40 0 0 0 0 0 0 0 0 5 0 0 0 2 28 61 6 5 14
0 0 0 0 0 0 0 0 0 0 0 0 0 0 0 0 0 0 4 0 0 0 0 4 86 100 95 91 95 14 0 0 0 0 0 0 0 0 0 0 0 0 5 26 100 94 100 100 97
0 0 0 0 0 0 0 0 0 0 0 0 0 0 0 0 0 0 5 0 0 0 3 74 100 92 91 99 38 0 0 0 0 0 0 0 0 0 0 0 2 13 41 100 100 44 100 94 98
4 0 1 0 0 0 0 0 0 0 0 0 0 0 0 0 0 0 0 0 0 4 75 100 100 100 77 24 2 0 0 0 0 0 0 0 2 0 0 2 0 36 66 100 88 100 100 98 97
2 1 0 0 0 0 0 0 0 0 0 0 0 0 0 0 0 0 0 0 5 66 100 100 99 62 55 4 0 0 0 0 0 0 5 5 2 4 4 8 5 5 89 100 96 61 100 100 76
0 2 1 1 1 2 0 0 0 0 0 0 0 0 0 0 0 0 0 4 43 99 100 66 24 13 4 0 0 0 0 4 1 37 5 1 46 5 0 100 58 95 99 100 100 100 100 100 100
0 0 4 0 0 0 0 0 0 0 0 1 0 0 0 0 0 0 2 11 100 86 23 9 25 2 0 0 0 7 38 20 5 5 5 82 68 5 4 100 79 96 100 94 100 100 100 100 100
1 4 80 73 0 0 0 0 0 89 78 3 3 0 0 0 0 6 97 99 100 20 24 50 5 0 0 0 1 89 53 0 0 3 2 5 74 61 0 100 100 78 100 78 96 100 100 100 100

GFSSGP_prec_cloud_036.txt.gz
Cloud_Cover
100 100 100 100 100 100 100 89 100 100 100 100 100 8 30 6 14 2 1 0 0 2 3 4 5 0 11 5 3 5 34 100 52 5 2 5 0 0 0 0 0 0 0 0 0 0 0 0 0
100 100 100 100 100 100 100 90 100 100 100 100 5 76 54 67 10 5 4 2 1 5 2 4 2 28 27 5 5 5 29 97 100 90 54 5 0 0 0 0 0 0 0 0 0 0 0 0 0
100 100 100 100 100 94 100 100 100 100 99 88 98 50 18 53 79 50 72 5 4 5 0 46 91 70 4 5 54 11 92 58 100 100 96 5 1 0 0 0 0 0 0 0 0 0 0 0 0
100 100 100 100 100 100 100 90 100 100 45 78 65 25 5 5 24 81 17 47 99 24 5 36 5 2 34 100 100 100 77 5 1 0 4 0 0 0 0 0 0 0 0 0 0 0 10 17 13
100 100 100 100 100 100 100 84 100 95 17 92 51 24 11 5 5 32 47 19 100 18 10 5 40 28 100 78 9 42 5 1 0 0 0 0 0 0 0 0 0 0 0 0 2 7 0 0 0
100 100 100 100 100 100 100 100 100 100 92 31 100 53 73 27 42 89 100 100 97 8 63 5 31 100 79 99 2 5 79 4 0 0 0 0 0 0 0 0 0 0 0 2 4 0 0 0 0
100 100 100 100 100 100 100 100 100 100 100 100 89 60 19 89 31 100 100 100 88 26 90 92 100 100 100 100 100 100 100 4 0 0 1 2 0 0 0 0 0 0 0 0 1 0 0 0 0
100 98 90 100 100 100 100 100 100 100 100 100 100 100 100 100 100 100 100 100 100 100 100 100 100 100 100 100 100 100 1 0 3 1 5 5 5 1 5 5 5 1 0 0 0 0 0 0 0
100 100 100 100 100 100 100 100 100 100 100 100 100 100 100 100 100 96 100 100 100 100 100 100 100 100 100 100 100 100 30 35 5 4 2 5 5 5 5 5 4 3 2 0 0 0 0 0 0
100 100 100 100 100 100 100 100 100 100 100 100 100 100 100 100 96 79 100 100 100 100 100 100 100 100 93 37 88 100 100 40 74 5 2 5 6 8 0 1 5 5 4 0 1 0 0 0 0
98 100 100 100 100 100 100 100 100 100 100 100 100 100 100 100 100 100 89 93 56 42 97 60 37 95 29 99 96 100 35 14 6 0 2 6 9 9 4 11 5 25 5 4 0 0 0 0 0
29 100 100 100 100 100 100 100 100 100 100 100 100 100 100 100 100 97 62 89 64 63 100 19 68 75 28 100 100 98 12 5 5 1 12 19 26 58 77 6 79 11 77 10 0 7 0 0 0
12 88 100 100 100 100 100 100 100 100 100 100 100 100 100 100 80 69 59 92 57 33 61 100 100 25 5 5 54 41 5 5 4 17 33 5 6 78 100 77 50 5 25 15 0 0 0 0 55
100 31 44 79 100 100 100 100 93 100 100 100 100 100 100 100 99 100 100 100 100 23 28 92 99 46 0 4 4 4 2 5 4 5 6 5 3 99 95 18 23 98 14 5 29 70 22 0 59
99 36 5 18 92 100 100 59 97 100 100 100 68 49 6 88 48 90 100 100 70 7 5 5 5 0 0 0 0 0 0 0 2 4 5 5 17 92 10 5 6 5 5 6 100 100 6 0 49
92 91 4 99 100 100 100 5 99 100 100 84 80 5 5 96 100 99 56 5 0 0 5 10 29 11 5 0 1 0 4 0 0 1 5 5 3 62 98 90 21 0 5 3 42 86 8 28 3
0 0 0 99 100 100 100 19 100 100 100 31 14 4 22 80 44 7 12 5 0 0 4 5 70 92 45 5 4 0 1 0 0 5 4 0 44 78 24 21 0 0 2 2 0 38 90 97 27
85 100 91 74 100 100 100 0 12 92 34 0 0 0 4 5 63 99 71 0 1 5 4 4 12 100 96 4 3 6 0 0 0 4 4 1 7 99 22 1 0 2 9 8 16 100 98 52 26
11 5 5 91 100 100 83 8 5 5 3 0 6 5 5 62 48 100 10 5 1 4 5 5 10 4 2 5 0 1 0 0 0 0 0 0 1 20 41 0 0 13 17 14 100 100 100 100 100
0 5 20 100 98 43 100 0 5 98 89 0 49 6 62 3 2 4 4 0 0 2 32 5 5 0 0 5 0 2 3 4 0 5 22 68 80 61 0 0 0 6 86 64 54 53 58 87 100
0 0 35 44 44 18 4 0 0 1 1 1 0 0 0 3 4 0 0 0 1 2 5 0 0 2 0 0 3 9 69 31 6 0 3 40 33 0 0 0 5 13 14 32 33 21 6 7 11
0 0 0 1 9 4 8 0 0 69 15 44 45 40 5 30 0 0 0 0 2 0 0 3 2 0 5 2 5 86 87 58 3 5 0 0 0 0 59 3 18 0 13 16 7 11 8 5 8
0 0 0 0 0 0 0 0 0 1 80 100 88 0 0 0 0 0 0 0 0 0 0 5 5 0 5 5 80 63 89 11 2 0 0 0 0 0 0 4 0 0 5 4 5 8 64 17 15
0 0 0 0 0 0 0 0 0 0 2 46 1 0 0 0 0 0 0 0 0 4 5 0 0 2 5 81 84 97 33 1 2 4 5 0 0 0 30 0 0 0 66 20 6 36 88 25 28
0 0 0 0 0 0 0 0 0 0 0 0 0 0 0 0 0 0 0 0 0 5 5 0 0 23 18 72 100 49 5 0 0 0 0 0 0 0 0 0 0 4 30 5 59 77 93 55 78
42 1 0 0 0 0 0 0 0 0 0 0 0 0 0 0 0 0 0 0 1 4 0 0 7 49 97 92 5 2 0 0 0 0 0 2 5 0 0 0 0 27 6 25 48 100 99 90 100
44 2 0 0 0 0 0 0 0 0 0 0 0 0 0 0 0 0 0 0 0 0 0 6 100 100 46 5 3 0 0 0 0 0 3 5 1 0 0 1 5 50 100 99 99 100 100 100 100
93 51 28 0 0 0 0 0 0 0 0 0 0 0 0 0 0 0 0 0 0 1 25 100 100 6 5 4 0 0 0 0 0 1 5 4 0 0 0 5 5 98 27 98 100 100 100 100 100
60 91 52 5 3 0 0 0 0 0 0 0 0 0 0 0 0 0 0 0 1 6 84 100 14 5 5 0 0 0 0 0 0 2 0 0 0 1 0 12 21 99 84 63 100 100 100 100 100
100 1 7 5 0 0 0 0 0 5 0 0 0 0 0 0 0 0 0 2 99 100 98 50 55 7 0 0 0 0 0 0 0 0 0 4 0 0 4 100 94 99 35 68 100 100 100 100 100

GFSSGP_prec_cloud_042.txt.gz
Cloud_Cover
100 100 100 100 100 100 99 100 100 89 14 82 90 100 100 100 82 75 100 100 94 66 100 97 1 0 0 9 5 0 5 100 50 0 3 17 100 58 0 0 0 5 0 0 0 0 0 0 0
100 100 100 100 100 100 96 100 100 96 85 75 65 98 100 100 45 77 28 90 15 90 32 4 2 0 0 5 1 14 92 96 8 11 46 100 43 5 5 5 5 2 0 0 0 0 0 0 0
100 100 100 100 100 100 100 96 82 100 100 100 100 100 99 72 5 5 10 22 100 13 5 5 0 0 2 5 1 96 100 9 7 87 100 67 5 65 1 0 2 1 4 5 2 0 0 0 0
100 88 100 100 100 100 100 100 100 96 100 100 100 100 31 71 8 5 5 100 93 21 24 6 0 0 1 5 5 90 3 5 87 100 4 0 5 1 0 5 5 99 98 4 0 0 0 0 0
100 92 100 100 100 100 100 100 100 87 22 100 100 72 100 99 8 5 12 67 61 95 75 5 3 2 10 100 6 5 5 46 100 54 2 1 3 0 0 5 93 93 10 0 0 0 0 6 0
99 100 100 100 100 100 50 84 96 100 100 100 100 71 96 100 64 31 27 34 97 39 5 34 36 65 100 100 99 81 89 100 50 4 0 0 0 0 5 100 5 1 0 0 0 0 0 0 0
95 86 100 100 100 100 86 88 6 95 100 100 100 99 100 98 9 100 30 92 54 62 52 76 98 100 100 100 100 100 64 7 3 5 4 3 5 5 5 5 5 0 0 0 0 0 0 0 0
100 71 100 100 100 100 100 100 36 82 100 100 100 100 100 100 98 39 80 100 100 99 100 100 100 100 100 100 100 100 63 5 6 5 5 51 6 6 5 1 0 5 0 0 0 0 0 0 0
97 5 76 100 100 100 100 92 7 72 100 100 100 100 100 100 100 100 100 100 92 94 100 100 100 100 100 100 100 96 6 12 51 76 97 5 5 0 0 0 0 5 0 4 3 3 2 5 5
100 84 100 100 100 100 100 100 36 35 93 100 100 100 100 100 100 100 100 100 100 100 100 100 100 100 100 100 84 92 88 39 63 18 5 0 0 0 0 0 0 5 1 2 5 5 5 0 4
100 100 100 100 100 100 100 100 100 100 100 100 100 100 100 100 98 90 99 95 100 100 100 86 68 91 68 85 74 100 38 18 5 0 0 2 21 4 0 4 0 5 5 5 2 5 5 3 5
91 82 100 100 100 100 100 100 100 100 100 100 100 100 100 100 99 93 44 41 100 17 100 99 96 66 99 100 86 22 66 18 5 8 7 24 42 26 28 7 7 26 33 15 10 26 18 37 5
23 100 100 100 100 100 100 100 89 100 100 100 100 100 100 100 76 100 100 58 5 54 74 100 96 95 95 100 78 5 5 5 5 16 20 5 11 17 22 40 99 90 35 71 56 65 86 67 57
25 6 68 100 100 100 98 99 13 100 100 100 100 100 83 42 68 26 50 100 54 100 82 69 20 58 97 100 8 7 0 28 71 8 7 5 6 21 24 78 100 100 100 100 100 100 100 100 5
96 90 96 16 88 100 100 81 41 100 100 100 100 100 100 98 22 7 7 38 8 67 5 5 10 22 65 3 5 0 5 58 80 99 24 40 4 23 2 64 100 100 100 100 100 100 100 91 0
90 98 14 63 100 100 100 4 100 100 100 100 99 5 5 89 100 71 88 100 100 82 5 5 5 5 5 4 0 0 5 88 20 14 85 88 10 13 3 5 12 100 91 58 99 31 53 3 3
37 9 6 100 100 82 95 20 100 100 100 100 55 5 4 5 22 100 100 100 100 12 3 5 5 4 1 0 1 0 5 5 5 80 86 88 16 24 5 4 2 24 19 30 22 12 1 4 28
95 100 75 5 91 91 5 1 53 91 97 17 18 84 92 95 100 100 100 100 17 5 5 2 3 0 0 10 17 19 38 43 54 99 99 39 36 75 27 5 5 24 24 30 17 2 6 8 67
12 38 5 100 100 100 16 0 5 2 6 6 5 5 20 100 100 100 100 23 5 4 4 5 5 4 6 9 15 40 21 96 80 52 20 24 75 100 6 9 97 100 88 4 3 13 100 84 85
0 1 4 3 86 88 67 0 5 1 1 2 5 7 12 42 100 93 11 0 2 4 12 5 5 5 3 5 31 9 37 74 88 30 40 26 70 51 31 100 100 2 21 17 22 100 94 100 100
0 0 0 0 0 0 3 2 2 36 5 7 5 34 100 100 100 10 1 0 5 2 5 5 4 0 27 17 3 14 5 21 24 56 53 100 58 6 100 93 2 6 14 24 96 93 100 100 97
4 0 0 0 0 0 0 0 5 24 5 5 37 98 100 100 26 5 5 0 0 5 5 5 0 21 8 5 2 0 1 3 1 10 97 16 0 41 100 3 0 7 31 80 37 69 100 86 26
0 5 0 0 0 0 0 0 0 93 0 3 100 100 45 5 5 1 2 27 100 88 7 5 17 24 6 0 0 0 0 0 7 87 2 0 29 52 0 0 0 35 100 19 18 49 86 79 11
0 9 20 0 0 0 0 0 0 2 0 3 0 1 0 0 3 11 100 100 92 8 5 28 26 33 1 1 3 0 0 5 4 0 1 12 13 11 0 2 69 100 33 10 12 69 90 89 15
5 4 55 2 0 0 0 0 0 0 0 0 0 0 0 0 3 7 67 40 5 3 98 54 21 34 2 2 0 0 5 0 0 0 5 26 31 16 12 15 7 4 0 5 6 13 78 71 84
0 22 3 76 1 0 0 0 0 0 0 0 0 0 0 0 0 0 0 0 0 77 92 48 14 15 0 0 0 4 0 0 0 0 5 11 3 2 0 0 0 1 4 20 38 45 69 100 91
0 6 2 85 54 3 0 0 0 0 0 0 0 0 0 0 0 0 0 6 100 95 67 16 0 0 0 0 0 0 0 0 0 0 0 0 0 0 0 0 0 5 42 48 5 100 98 53 100
0 0 2 4 9 4 0 0 0 0 0 0 0 0 0 0 0 3 82 100 96 40 31 2 0 0 2 1 0 4 1 0 0 0 1 0 1 0 0 0 0 2 14 5 18 100 16 67 96
6 20 5 4 2 4 0 0 0 0 0 0 0 0 0 0 0 53 100 100 66 29 10 0 1 0 0 1 1 2 0 0 0 0 0 0 0 0 4 0 0 27 38 5 5 87 62 93 100
99 70 42 64 0 0 0 0 0 0 0 0 0 0 0 0 28 100 100 100 66 32 2 0 5 5 5 0 1 0 0 0 0 0 0 0 0 0 0 0 4 1 5 80 99 68 22 100 100

GFSSGP_prec_cloud_048.txt.gz
Cloud_Cover
99 17 5 32 83 7 8 57 13 5 97 100 100 100 100 100 59 4 58 100 100 46 12 6 24 10 5 4 0 0 0 0 0 0 0 0 0 0 5 0 0 0 0 0 0 0 0 0 0
100 58 22 5 98 40 5 5 100 100 70 99 100 100 100 100 100 100 75 100 100 100 83 81 62 5 5 4 4 0 0 0 0 0 0 0 0 5 2 0 0 0 0 0 0 0 0 0 0
100 100 5 7 76 43 5 6 17 100 100 95 100 100 100 100 100 100 100 100 99 24 7 10 40 2 5 5 9 0 0 0 1 2 1 0 3 5 0 0 0 0 0 0 0 0 0 0 0
100 98 49 73 74 72 5 8 51 84 100 100 100 100 100 100 100 100 100 73 100 34 6 20 46 62 6 5 5 17 22 5 1 5 5 5 72 9 41 0 0 0 0 0 0 0 0 0 0
100 100 88 100 100 64 20 77 20 91 50 77 100 100 100 100 100 100 100 56 37 54 5 5 14 73 9 19 37 84 54 85 88 10 5 86 82 13 0 0 0 0 0 3 3 0 0 0 0
100 100 100 100 100 88 7 24 100 74 82 72 81 100 100 100 100 73 100 100 100 99 18 70 100 65 46 100 20 100 100 100 8 5 5 5 3 1 2 0 0 2 1 0 0 0 0 0 0
98 99 96 100 100 100 98 7 51 68 70 21 58 87 100 100 100 100 100 97 46 100 100 100 98 24 72 86 100 100 66 7 0 0 0 5 4 5 0 0 0 0 0 0 0 0 2 0 0
99 67 100 100 100 100 100 100 100 100 100 92 12 99 94 100 100 100 100 95 20 14 33 92 100 98 98 100 85 50 4 5 5 4 0 0 2 0 0 2 0 0 3 0 2 4 0 2 0
94 99 100 100 100 100 100 35 70 23 94 95 94 42 81 91 38 49 9 5 5 67 5 44 83 99 63 10 92 96 52 98 22 4 5 5 0 0 5 5 1 5 4 3 0 5 5 5 5
40 30 100 100 100 100 100 6 16 8 5 24 5 91 100 100 100 98 5 5 5 81 72 40 11 5 80 100 100 100 100 90 5 5 78 9 6 4 5 4 5 5 5 5 0 32 58 58 100
100 98 100 100 100 100 100 100 7 7 77 89 5 82 57 99 100 18 5 5 5 23 60 46 27 98 100 100 100 100 100 77 26 18 17 91 76 5 5 5 5 5 5 5 0 1 67 95 73
31 100 100 100 100 100 100 100 92 5 5 5 5 5 4 15 100 91 5 16 5 98 100 77 72 100 100 100 100 91 6 53 12 5 5 10 11 64 5 7 5 5 5 5 5 5 49 100 100
5 96 100 100 100 100 100 100 100 5 5 5 5 5 5 5 53 100 54 65 20 100 100 88 100 100 90 100 93 52 50 17 52 10 5 5 4 4 5 38 5 5 5 5 5 4 4 73 100
99 98 81 97 100 100 100 100 100 99 45 56 8 35 5 5 96 99 99 100 100 100 100 100 100 95 44 50 21 54 15 100 97 39 5 2 2 5 5 57 5 5 5 5 5 5 3 2 13
96 72 62 8 99 99 100 100 13 100 100 68 5 76 100 38 100 100 100 100 100 100 100 27 5 5 5 5 38 68 98 27 22 63 5 0 8 5 5 5 34 6 5 5 5 5 5 14 88
10 39 15 63 48 100 100 80 100 100 100 98 100 100 100 13 13 100 100 100 100 100 79 7 26 60 12 76 83 98 100 100 61 3 0 2 16 20 5 5 5 5 5 5 5 9 100 99 22
0 1 2 61 100 100 100 7 99 100 78 52 99 64 94 100 100 100 93 96 92 78 27 69 89 5 15 99 100 100 100 51 19 1 1 5 24 52 10 5 5 58 40 28 69 100 100 67 2
0 0 0 0 0 20 35 6 77 100 100 37 95 59 85 98 36 66 96 100 100 100 100 100 12 30 32 83 82 24 65 18 2 0 4 5 23 55 41 24 55 33 22 45 6 5 0 0 41
0 0 0 0 0 0 0 0 100 100 100 69 6 100 75 99 100 94 92 93 100 100 100 5 5 28 81 100 46 100 86 65 2 0 0 9 16 41 99 40 89 35 65 16 5 0 0 27 19
0 1 0 5 1 0 0 0 35 96 100 79 7 17 38 92 100 100 100 93 5 5 5 37 97 100 100 88 100 95 100 77 0 0 7 14 33 86 100 49 38 5 70 24 0 4 47 34 74
0 0 5 5 49 2 0 0 0 4 6 99 100 100 100 100 100 100 100 100 30 11 29 54 98 67 100 100 100 100 41 0 1 5 5 43 80 100 100 57 25 8 3 2 8 25 13 33 41
5 4 5 27 86 4 4 0 0 0 2 5 12 97 100 100 100 100 92 100 100 56 5 9 58 100 100 73 47 5 2 1 72 5 8 100 100 93 100 63 15 0 4 12 11 11 24 27 70
74 100 80 97 82 100 10 22 0 0 0 0 6 100 100 100 100 78 77 12 35 95 100 100 100 100 68 5 4 5 0 5 5 0 68 62 100 100 80 42 21 31 1 6 16 26 23 24 6
92 100 100 100 100 91 1 56 0 0 0 0 0 53 100 100 66 12 99 43 86 100 100 100 100 39 22 48 40 0 5 3 0 2 10 50 93 94 70 42 31 0 2 9 20 72 48 26 28
92 100 100 100 100 66 31 100 0 0 0 0 0 0 0 2 0 0 1 5 10 95 51 100 44 51 100 100 0 0 0 0 0 5 2 14 92 94 98 27 1 5 18 38 46 54 60 63 77
100 100 100 100 100 19 85 94 0 0 0 0 0 0 0 0 0 0 0 0 0 1 4 6 5 68 71 3 0 0 0 0 0 4 1 12 39 37 57 2 16 33 72 93 65 17 6 72 36
50 100 100 100 100 99 2 29 0 0 0 0 0 0 0 0 0 0 0 0 1 5 6 5 4 1 0 0 0 0 0 0 0 8 0 4 0 0 0 28 76 98 92 55 43 3 57 48 36
90 86 100 88 97 100 62 10 0 0 0 3 0 0 0 0 0 0 0 0 1 53 84 21 0 0 0 1 0 0 6 5 7 0 0 0 0 0 21 44 97 64 37 25 11 12 50 75 97
100 100 100 100 100 100 100 4 3 1 0 1 0 0 0 0 0 0 0 17 0 70 84 0 0 6 16 15 21 12 1 0 1 0 0 0 0 2 12 45 38 8 17 4 46 100 99 92 100
100 100 100 98 100 60 100 100 3 2 0 5 0 0 0 0 0 0 80 100 15 0 4 16 22 18 18 12 6 0 0 3 0 0 0 0 0 1 19 3 0 4 0 40 68 54 43 100 61